This is the latest recevied weather packets stored in our database for station/object DW9280. If no packets are shown the sender has not sent any weather packets the latest 10 day(s).
| Time | Temp. | Humidity | Pressure | Rain* | Wind** | Luminosity | Snow |
|---|---|---|---|---|---|---|---|
| 1787668609 | 25.56° C | 44% | 1014.3 hPa | 0 mm | - | 422 W/m² | - |
| 1787668304 | 25.56° C | 43% | 1014.3 hPa | 0 mm | - | 512 W/m² | - |
| 1787668128 | 25.56° C | 44% | 1014.3 hPa | 0 mm | - | 601 W/m² | - |
| 1787667703 | 25.56° C | 44% | 1014.3 hPa | 0 mm | - | 617 W/m² | - |
| 1787667524 | 25° C | 46% | 1014.4 hPa | 0 mm | - | 628 W/m² | - |
| 1787667101 | 25° C | 45% | 1014.4 hPa | 0 mm | - | 589 W/m² | - |
| 1787666923 | 25° C | 45% | 1014.4 hPa | 0 mm | - | 457 W/m² | - |
| 1787666496 | 25° C | 47% | 1014.4 hPa | 0 mm | - | 510 W/m² | - |
| 1787666197 | 25° C | 45% | 1014.3 hPa | 0 mm | - | 578 W/m² | - |
| 1787665897 | 25° C | 44% | 1014.4 hPa | 0 mm | - | 425 W/m² | - |
| 1787665596 | 25.56° C | 45% | 1014.4 hPa | 0 mm | - | 496 W/m² | - |
| 1787665421 | 25.56° C | 45% | 1014.3 hPa | 0 mm | - | 554 W/m² | - |
| 1787664995 | 25.56° C | 44% | 1014.3 hPa | 0 mm | - | 538 W/m² | - |
| 1787664697 | 25.56° C | 44% | 1014.4 hPa | 0 mm | - | 670 W/m² | - |
| 1787664396 | 25.56° C | 45% | 1014.4 hPa | 0 mm | - | 601 W/m² | - |
| 1787664097 | 25.56° C | 43% | 1014.4 hPa | 0 mm | - | 701 W/m² | - |
| 1787663798 | 25.56° C | 45% | 1014.4 hPa | 0 mm | - | 693 W/m² | - |
| 1787663496 | 25.56° C | 45% | 1014.4 hPa | 0 mm | - | 682 W/m² | - |
| 1787663321 | 25.56° C | 47% | 1014.5 hPa | 0 mm | - | 708 W/m² | - |
| 1787662896 | 25.56° C | 46% | 1014.5 hPa | 0 mm | - | 712 W/m² | - |
| 1787662669 | 25° C | 46% | 1014.5 hPa | 0 mm | - | 677 W/m² | - |
| 1787662457 | 25° C | 47% | 1014.5 hPa | 0 mm | - | 724 W/m² | - |
| 1787662120 | 25° C | 50% | 1014.5 hPa | 0 mm | - | 712 W/m² | - |
| 1787661700 | 24.44° C | 51% | 1014.5 hPa | 0 mm | - | 689 W/m² | - |
| 1787661395 | 24.44° C | 52% | 1014.5 hPa | 0 mm | - | 684 W/m² | - |
* Rain latest hour (hover to see other rain measurements)
** Current wind speed in m/s (hover to see current wind gust speed)